Temp
-8 -8 -7 -8 -8 -8 -8 -8 -7 -7 -7 -6 -6 -5 -5 -5 -4 -6 -6 -6 -5 -5 -5 -5 -5 -5 -4 -4 -3 -3 -3 -3 -3 -3 -3 -3 -5 -4 -5 -6 -6 -7 -7 -7
-8 -7 -7 -8 -8 -8 -8 -7 -7 -7 -7 -6 -6 -5 -5 -5 -5 -6 -6 -6 -6 -6 -5 -5 -5 -5 -4 -4 -3 -3 -3 -3 -3 -3 -3 -3 -4 -5 -5 -5 -6 -7 -7 -8
-7 -7 -8 -8 -8 -9 -9 -7 -7 -7 -7 -7 -6 -6 -6 -6 -6 -6 -6 -6 -6 -6 -6 -5 -5 -5 -4 -4 -3 -3 -3 -3 -3 -3 -3 -4 -4 -5 -5 -5 -6 -7 -7 -8
-7 -7 -8 -8 -8 -8 -9 -7 -7 -8 -7 -7 -7 -6 -7 -7 -7 -6 -7 -6 -6 -6 -6 -5 -4 -5 -5 -4 -3 -3 -3 -3 -3 -3 -3 -4 -4 -5 -5 -5 -6 -7 -8 -7
-7 -7 -8 -7 -7 -9 -7 -8 -7 -8 -7 -8 -8 -6 -6 -6 -7 -7 -6 -6 -5 -6 -6 -6 -5 -5 -4 -4 -3 -3 -3 -3 -3 -3 -3 -3 -4 -5 -5 -5 -5 -6 -8 -8
-7 -8 -8 -7 -8 -8 -8 -8 -8 -9 -10 -7 -7 -7 -6 -5 -6 -6 -6 -6 -5 -5 -5 -5 -5 -5 -4 -3 -3 -3 -3 -3 -3 -3 -3 -3 -4 -5 -5 -6 -6 -7 -7 -7
-7 -7 -7 -7 -8 -8 -8 -8 -8 -8 -8 -5 -7 -8 -6 -6 -6 -6 -6 -6 -5 -5 -5 -5 -4 -4 -4 -3 -3 -3 -3 -3 -3 -3 -3 -3 -3 -4 -5 -5 -6 -7 -7 -7
-8 -7 -7 -7 -7 -8 -8 -8 -7 -7 -8 -5 -8 -7 -7 -6 -6 -6 -6 -6 -5 -4 -5 -4 -5 -4 -4 -3 -3 -3 -3 -3 -3 -3 -3 -3 -3 -4 -4 -5 -6 -6 -7 -8
-9 -7 -8 -8 -8 -8 -8 -8 -7 -8 -8 -7 -8 -8 -8 -6 -6 -6 -5 -5 -4 -4 -5 -4 -4 -4 -4 -3 -3 -3 -3 -3 -3 -3 -3 -3 -3 -4 -4 -5 -6 -6 -7 -7
-9 -8 -8 -9 -9 -8 -8 -8 -8 -8 -7 -7 -8 -8 -8 -6 -6 -6 -5 -7 -6 -4 -4 -4 -4 -4 -4 -3 -3 -3 -3 -3 -3 -3 -3 -3 -3 -4 -4 -5 -5 -6 -6 -7
-10 -9 -8 -9 -9 -8 -8 -8 -8 -8 -8 -7 -7 -7 -7 -8 -7 -6 -5 -4 -4 -4 -5 -5 -4 -4 -4 -4 -3 -3 -3 -3 -3 -3 -3 -3 -3 -4 -4 -4 -5 -5 -6 -7
-11 -10 -8 -7 -9 -9 -9 -8 -9 -8 -7 -6 -7 -7 -7 -7 -7 -7 -6 -5 -4 -4 -5 -5 -5 -4 -4 -3 -3 -3 -3 -3 -3 -3 -3 -3 -3 -3 -4 -4 -5 -5 -6 -7
-12 -9 -8 -9 -9 -9 -9 -8 -8 -8 -8 -7 -7 -7 -7 -7 -7 -7 -7 -6 -5 -5 -5 -4 -4 -4 -3 -3 -3 -3 -3 -3 -3 -3 -3 -3 -3 -3 -4 -4 -5 -5 -6 -7
-13 -10 -9 -9 -8 -9 -9 -8 -8 -8 -8 -7 -7 -6 -6 -7 -7 -7 -6 -6 -4 -5 -5 -5 -5 -4 -4 -3 -3 -3 -3 -3 -3 -3 -3 -3 -3 -4 -4 -5 -5 -6 -6 -7
-13 -11 -9 -8 -9 -9 -9 -9 -8 -8 -8 -8 -7 -6 -7 -7 -7 -7 -7 -6 -5 -5 -5 -4 -5 -5 -4 -4 -3 -3 -3 -3 -3 -3 -3 -3 -3 -3 -4 -5 -5 -6 -6 -7
-13 -13 -9 -8 -9 -9 -9 -9 -9 -9 -8 -8 -7 -7 -7 -7 -7 -7 -7 -6 -6 -6 -5 -4 -5 -5 -4 -4 -4 -3 -3 -3 -3 -3 -3 -3 -3 -3 -4 -5 -5 -5 -5 -7
-14 -13 -11 -10 -9 -9 -9 -9 -9 -9 -9 -8 -8 -7 -7 -7 -7 -7 -7 -7 -7 -6 -5 -5 -4 -4 -4 -4 -4 -3 -3 -3 -3 -3 -3 -3 -3 -4 -4 -5 -5 -5 -5 -6
-14 -14 -13 -11 -10 -9 -9 -9 -9 -9 -9 -8 -7 -7 -7 -7 -7 -7 -7 -5 -5 -5 -5 -4 -4 -4 -5 -4 -4 -3 -3 -3 -3 -3 -3 -3 -3 -4 -4 -5 -5 -5 -6 -6
-15 -14 -14 -12 -11 -9 -9 -9 -10 -9 -9 -8 -8 -6 -8 -7 -7 -8 -6 -6 -7 -6 -5 -4 -4 -4 -5 -4 -4 -3 -3 -3 -3 -3 -3 -3 -4 -4 -5 -6 -6 -6 -6 -6
-17 -15 -14 -13 -11 -10 -10 -9 -9 -9 -9 -9 -8 -7 -7 -8 -8 -8 -7 -6 -6 -4 -5 -5 -4 -5 -5 -4 -4 -4 -4 -3 -3 -3 -4 -4 -4 -4 -5 -6 -6 -6 -6 -7
-18 -16 -15 -14 -12 -10 -10 -9 -10 -9 -9 -9 -8 -8 -8 -8 -8 -8 -7 -6 -6 -5 -4 -5 -4 -5 -5 -5 -4 -4 -4 -4 -4 -4 -4 -4 -4 -5 -6 -6 -6 -6 -6 -7
-17 -17 -15 -15 -13 -11 -10 -9 -10 -10 -9 -9 -8 -8 -8 -8 -8 -8 -8 -7 -7 -6 -6 -5 -5 -5 -5 -5 -5 -5 -5 -5 -4 -4 -4 -5 -5 -6 -6 -6 -6 -7 -7 -7
-17 -17 -16 -15 -14 -13 -11 -10 -10 -10 -9 -9 -9 -8 -8 -8 -8 -8 -8 -8 -6 -7 -6 -6 -6 -6 -6 -6 -6 -6 -6 -6 -5 -5 -5 -5 -6 -6 -6 -6 -7 -7 -7 -7
-17 -16 -16 -16 -15 -14 -12 -12 -11 -10 -10 -9 -9 -8 -8 -8 -8 -8 -8 -7 -6 -8 -7 -6 -6 -6 -6 -7 -7 -6 -7 -7 -6 -6 -6 -6 -6 -7 -7 -6 -6 -6 -7 -7
-18 -17 -16 -16 -15 -14 -13 -12 -11 -11 -10 -9 -9 -9 -9 -8 -8 -8 -8 -8 -7 -8 -8 -7 -6 -6 -6 -7 -7 -7 -7 -7 -7 -7 -7 -7 -7 -7 -6 -6 -6 -6 -6 -6
-18 -17 -16 -16 -15 -14 -14 -12 -11 -11 -10 -10 -9 -10 -9 -9 -9 -9 -8 -8 -8 -8 -7 -7 -7 -8 -7 -7 -7 -7 -7 -7 -7 -7 -7 -7 -7 -7 -7 -6 -7 -7 -7 -6
Height
5871 5873 5879 5887 5891 5892 5893 5895 5898 5899 5903 5904 5908 5908 5908 5906 5904 5909 5911 5911 5913 5910 5910 5913 5917 5918 5923 5926 5928 5930 5932 5933 5934 5935 5935 5934 5934 5935 5934 5934 5933 5933 5932 5932
5862 5863 5878 5882 5885 5887 5888 5890 5897 5897 5897 5902 5905 5907 5907 5906 5904 5903 5906 5908 5909 5909 5908 5910 5915 5918 5922 5925 5929 5931 5933 5934 5935 5936 5936 5936 5935 5936 5937 5936 5934 5934 5934 5934
5853 5866 5873 5875 5879 5882 5884 5888 5893 5893 5894 5898 5902 5906 5906 5907 5906 5903 5904 5906 5907 5907 5906 5908 5912 5917 5921 5926 5929 5931 5933 5935 5936 5937 5937 5938 5938 5938 5940 5940 5938 5937 5938 5938
5844 5860 5861 5866 5870 5876 5879 5885 5890 5889 5892 5890 5899 5901 5899 5904 5905 5906 5904 5905 5906 5906 5906 5907 5910 5914 5919 5924 5928 5931 5934 5936 5937 5938 5939 5939 5940 5940 5942 5942 5940 5940 5940 5940
5840 5849 5854 5858 5866 5870 5877 5883 5887 5885 5887 5889 5893 5895 5897 5894 5900 5905 5904 5903 5904 5905 5905 5906 5908 5912 5915 5922 5927 5931 5934 5936 5938 5939 5939 5940 5941 5942 5943 5942 5942 5941 5941 5941
5829 5837 5843 5853 5861 5865 5875 5878 5880 5879 5883 5882 5888 5891 5892 5895 5896 5901 5902 5901 5904 5905 5904 5904 5907 5909 5913 5919 5924 5929 5933 5936 5938 5939 5940 5941 5942 5942 5943 5943 5943 5943 5944 5944
5820 5828 5837 5843 5850 5855 5863 5870 5873 5873 5874 5878 5886 5887 5888 5889 5893 5896 5898 5899 5901 5904 5904 5905 5906 5910 5913 5918 5923 5928 5932 5935 5938 5939 5940 5941 5943 5943 5944 5944 5943 5945 5946 5945
5808 5818 5827 5835 5842 5852 5855 5862 5865 5867 5871 5878 5882 5881 5884 5887 5891 5894 5896 5897 5898 5900 5901 5905 5906 5908 5913 5917 5921 5926 5930 5934 5937 5939 5940 5942 5943 5944 5944 5944 5944 5946 5946 5946
5797 5808 5820 5826 5837 5844 5852 5852 5864 5865 5870 5872 5875 5876 5879 5884 5885 5887 5889 5891 5891 5896 5898 5902 5907 5908 5912 5916 5920 5925 5928 5932 5935 5938 5940 5942 5943 5944 5945 5944 5945 5946 5946 5947
5786 5796 5807 5820 5826 5833 5840 5853 5854 5855 5860 5863 5867 5870 5874 5879 5879 5881 5882 5883 5885 5892 5895 5898 5904 5908 5910 5915 5919 5922 5926 5930 5934 5936 5939 5941 5943 5944 5944 5944 5945 5947 5947 5947
5775 5783 5798 5806 5810 5822 5832 5838 5843 5850 5855 5858 5861 5864 5871 5875 5877 5880 5882 5886 5889 5892 5892 5897 5899 5904 5907 5912 5919 5922 5925 5928 5932 5935 5937 5940 5942 5943 5944 5944 5945 5946 5947 5946
5761 5770 5785 5794 5804 5816 5822 5829 5835 5840 5847 5852 5855 5860 5868 5873 5877 5879 5884 5884 5889 5890 5891 5895 5896 5897 5904 5910 5917 5921 5923 5927 5930 5933 5936 5938 5940 5942 5943 5944 5944 5945 5946 5945
5752 5762 5774 5787 5796 5804 5810 5820 5828 5832 5839 5842 5849 5857 5864 5869 5872 5876 5878 5880 5885 5888 5890 5891 5893 5894 5897 5906 5913 5917 5921 5925 5928 5930 5933 5936 5938 5940 5941 5942 5943 5943 5943 5943
5746 5755 5762 5779 5791 5790 5799 5809 5819 5824 5828 5837 5843 5852 5858 5864 5867 5869 5872 5870 5878 5883 5885 5888 5889 5889 5891 5900 5907 5913 5918 5922 5925 5928 5930 5933 5936 5938 5939 5940 5941 5941 5941 5941
5741 5745 5754 5771 5781 5786 5795 5804 5811 5817 5825 5829 5840 5846 5853 5859 5861 5864 5866 5867 5871 5876 5879 5883 5885 5885 5887 5894 5902 5907 5913 5918 5921 5924 5927 5930 5932 5935 5937 5938 5939 5939 5938 5938
5732 5739 5749 5766 5775 5782 5791 5801 5808 5815 5821 5825 5832 5839 5849 5852 5854 5858 5862 5864 5865 5868 5873 5874 5877 5878 5882 5889 5898 5904 5910 5915 5917 5920 5923 5925 5929 5932 5934 5934 5936 5936 5935 5935
5726 5734 5743 5758 5768 5776 5787 5798 5803 5810 5814 5816 5821 5834 5841 5844 5847 5851 5855 5855 5858 5861 5866 5872 5872 5870 5875 5886 5893 5900 5906 5910 5913 5916 5918 5922 5925 5928 5930 5931 5933 5934 5932 5932
5717 5727 5735 5749 5759 5768 5784 5791 5799 5802 5805 5809 5816 5823 5833 5838 5842 5847 5851 5852 5850 5855 5863 5866 5867 5865 5871 5880 5888 5893 5899 5904 5909 5911 5914 5918 5921 5923 5925 5927 5929 5931 5930 5930
5707 5719 5727 5738 5749 5764 5777 5786 5790 5793 5797 5801 5808 5816 5823 5830 5834 5840 5845 5847 5846 5851 5853 5859 5863 5862 5869 5878 5883 5889 5895 5899 5904 5908 5911 5914 5916 5918 5921 5923 5926 5926 5927 5927
5698 5707 5719 5731 5740 5754 5767 5775 5781 5785 5791 5794 5801 5810 5817 5822 5827 5834 5839 5843 5848 5851 5853 5856 5855 5857 5868 5875 5880 5885 5890 5895 5900 5904 5907 5909 5911 5913 5917 5919 5921 5922 5922 5923
5684 5693 5708 5719 5729 5746 5756 5766 5773 5778 5788 5789 5795 5802 5809 5814 5826 5831 5832 5836 5844 5846 5850 5853 5854 5856 5866 5872 5877 5882 5886 5891 5894 5897 5900 5903 5906 5909 5912 5914 5916 5917 5918 5919
5675 5685 5700 5711 5722 5737 5743 5755 5763 5770 5780 5784 5789 5795 5802 5807 5816 5821 5826 5830 5838 5844 5845 5847 5851 5853 5860 5869 5873 5877 5881 5884 5888 5892 5896 5898 5902 5904 5907 5909 5911 5913 5914 5914
5670 5674 5690 5705 5714 5723 5732 5741 5749 5759 5769 5774 5782 5789 5797 5802 5810 5817 5824 5828 5835 5841 5845 5845 5848 5851 5854 5862 5870 5874 5876 5879 5883 5886 5890 5894 5896 5899 5902 5904 5906 5907 5908 5909
5664 5674 5687 5697 5704 5712 5722 5728 5737 5750 5761 5767 5774 5783 5791 5798 5803 5809 5817 5820 5825 5830 5838 5840 5844 5847 5850 5854 5861 5870 5871 5874 5878 5882 5885 5888 5891 5895 5897 5899 5900 5902 5903 5904
5654 5664 5680 5690 5697 5705 5714 5721 5731 5746 5755 5762 5768 5776 5782 5789 5795 5802 5809 5817 5822 5827 5830 5835 5840 5843 5845 5848 5854 5861 5863 5867 5873 5877 5880 5883 5887 5889 5891 5893 5895 5896 5898 5898
5650 5662 5672 5678 5689 5696 5704 5714 5724 5736 5745 5755 5762 5768 5775 5781 5787 5794 5801 5806 5815 5820 5825 5830 5832 5838 5841 5844 5850 5853 5856 5860 5864 5869 5874 5878 5880 5882 5884 5886 5888 5890 5891 5891
Wind_Speed
32 33 30 31 25 28 31 32 27 18 17 17 12 13 11 6 11 7 7 6 4 6 3 13 19 20 17 19 20 18 16 14 13 12 11 12 12 12 13 13 15 16 16 16
40 39 26 30 33 30 31 31 25 13 18 15 14 11 11 4 4 3 4 4 5 5 4 13 19 21 19 21 22 20 16 14 12 10 11 11 11 12 11 11 14 16 17 16
44 32 27 32 38 38 29 31 15 8 10 19 19 7 4 3 4 5 5 3 1 5 4 16 21 23 22 21 22 22 17 15 12 10 10 10 10 11 9 9 12 14 15 15
46 35 37 36 39 42 37 30 17 10 11 25 17 13 12 2 8 8 10 6 4 3 5 15 23 25 23 23 23 22 19 16 13 10 10 9 9 10 7 9 12 13 14 13
40 39 40 39 37 39 41 31 22 12 16 8 6 11 5 5 3 14 13 12 7 7 11 15 18 26 26 26 25 24 20 17 13 11 9 9 7 8 6 9 10 12 12 13
41 39 42 40 35 39 34 31 32 23 18 16 8 13 8 4 3 16 15 9 8 12 10 18 21 26 28 31 29 26 22 18 15 12 10 8 7 6 5 9 9 9 9 10
45 40 41 42 41 40 37 37 35 30 28 17 7 15 10 7 7 13 11 10 10 7 9 13 20 24 29 30 30 27 22 19 15 13 11 9 6 6 5 6 9 7 6 9
46 46 41 41 44 40 44 40 43 37 30 18 11 19 15 16 14 16 15 12 16 12 11 12 20 25 31 31 31 28 24 20 16 15 12 10 7 6 3 5 6 4 4 5
51 45 40 39 38 42 39 44 40 36 29 25 23 22 22 18 17 16 17 24 30 23 15 14 19 25 26 31 32 29 25 21 18 15 13 11 9 7 4 5 4 3 3 4
52 51 43 39 38 41 44 40 42 42 38 35 28 25 22 13 14 16 16 13 20 25 20 20 19 23 26 29 33 30 27 23 19 16 14 12 10 8 6 4 5 2 2 4
53 53 48 44 48 44 41 44 48 42 40 38 33 30 23 12 15 10 8 9 17 22 19 19 20 22 25 29 33 30 27 23 18 15 14 13 11 10 7 5 4 3 4 6
55 55 52 52 44 43 45 45 50 49 44 43 39 34 26 22 12 17 14 24 19 23 19 20 23 24 27 28 33 29 27 22 20 17 15 13 12 10 8 5 5 4 3 4
58 62 58 50 44 49 51 49 50 53 48 48 45 39 29 25 22 20 24 27 24 19 18 23 23 22 26 31 33 30 26 23 21 18 15 13 12 10 9 8 6 6 6 3
59 63 63 55 49 54 52 54 50 54 53 48 47 41 35 28 23 26 26 31 29 27 17 18 23 23 23 33 34 31 27 24 22 19 17 15 13 12 9 9 8 8 7 5
60 63 67 58 52 55 51 54 53 51 51 50 44 42 37 29 23 21 28 25 34 27 23 23 23 24 24 32 34 34 31 26 23 21 18 17 15 12 9 11 11 12 10 5
60 63 66 59 54 57 54 48 52 49 44 44 43 40 38 29 31 23 28 29 41 33 28 30 27 28 28 28 33 36 32 28 23 22 21 21 16 12 14 14 13 11 7 2
58 62 64 58 55 58 55 47 42 40 42 39 41 36 37 38 33 33 30 28 20 36 29 30 30 31 30 28 31 34 33 30 25 24 23 20 17 14 16 16 13 9 3 5
63 57 63 60 56 59 55 49 33 42 44 36 34 35 40 37 35 30 29 25 25 37 34 31 30 33 31 31 32 34 35 31 27 26 23 20 17 18 19 15 14 8 6 8
57 60 57 61 60 59 57 49 36 38 39 45 29 41 41 38 33 28 22 9 13 34 29 28 33 33 30 29 30 31 31 30 29 27 24 21 20 19 18 17 14 8 5 2
53 51 59 60 62 64 59 53 41 37 38 40 33 37 43 41 35 30 24 20 16 27 28 29 33 30 28 28 28 28 28 28 27 25 23 23 22 21 18 20 14 10 4 1
59 49 54 57 64 63 62 55 44 40 38 35 39 32 37 42 31 23 31 35 17 32 33 30 28 25 25 27 26 26 27 25 26 27 27 25 22 22 24 19 14 8 5 2
65 61 49 56 61 63 67 61 50 44 40 36 42 41 35 40 38 33 28 29 18 30 31 31 30 25 24 23 25 27 26 27 28 27 27 24 24 25 24 17 14 12 10 9
58 64 58 50 54 57 64 65 52 50 43 36 32 39 37 37 44 38 36 33 30 30 34 33 30 29 24 18 22 23 22 26 26 27 24 23 28 29 25 22 19 17 17 15
50 61 63 55 53 54 61 63 64 52 46 43 36 35 44 38 38 42 41 43 35 42 38 34 34 32 29 25 20 20 26 25 24 26 24 26 29 29 29 26 22 20 19 19
42 50 56 57 54 55 53 65 62 59 49 48 40 37 39 42 35 37 43 37 34 34 44 41 39 38 35 33 29 28 29 28 25 23 25 25 25 25 28 29 28 27 25 24
37 40 49 52 55 60 51 58 58 65 56 48 46 40 39 39 37 33 39 44 42 37 36 46 48 38 41 38 31 31 32 32 32 29 26 25 26 27 28 27 29 27 27 29
Wind_Direction
224 223 210 207 195 193 201 206 197 219 212 204 224 207 208 159 119 77 48 358 347 298 179 191 176 173 168 159 157 153 147 135 116 108 100 84 71 65 66 73 90 91 89 88
220 224 209 207 198 193 211 217 214 216 232 203 205 197 197 154 60 67 55 45 353 314 231 178 176 177 170 166 163 159 155 141 125 112 103 88 82 67 66 66 79 86 86 82
223 222 212 210 205 201 215 218 236 245 218 195 200 199 114 28 16 12 15 45 353 312 234 177 175 180 169 170 170 166 161 148 137 125 109 98 95 85 80 71 81 89 88 86
230 215 216 211 207 208 209 226 226 175 209 195 194 193 120 316 348 19 355 324 287 220 220 181 174 175 174 175 175 171 165 156 146 136 125 112 107 99 101 79 76 85 92 88
226 217 219 216 210 211 210 218 216 214 173 227 225 190 164 155 25 341 346 309 296 237 198 172 184 178 179 176 180 175 171 163 156 147 136 122 108 114 112 91 78 83 90 86
225 221 216 217 211 211 210 216 210 198 227 229 172 251 201 204 342 301 307 302 279 266 201 190 190 190 181 178 179 176 173 168 159 154 145 135 120 111 117 110 92 86 90 84
227 217 215 215 210 207 205 209 210 215 214 214 190 243 234 245 260 277 299 298 251 242 246 201 188 192 185 176 180 177 175 170 165 159 156 145 133 123 123 123 109 113 103 85
230 223 216 213 214 214 209 206 212 212 214 179 214 251 255 242 252 274 269 248 259 219 210 198 176 179 181 180 179 178 176 175 170 166 163 155 146 139 148 118 140 146 110 87
228 223 217 217 216 212 208 211 211 214 205 209 209 235 239 225 247 269 274 260 237 225 186 200 191 179 182 182 180 180 178 178 175 171 170 166 156 152 167 140 126 106 111 81
222 221 214 211 213 213 213 211 207 210 204 209 210 226 248 245 258 280 288 143 168 206 183 196 187 184 182 190 185 183 182 179 180 179 177 175 171 165 170 164 136 123 120 106
217 223 210 204 213 205 207 209 209 210 209 207 215 222 233 258 291 299 235 205 200 197 181 196 188 186 186 194 193 188 185 183 181 183 182 181 177 172 164 185 159 165 168 127
210 215 212 209 204 210 206 205 205 212 209 208 214 220 224 227 261 276 244 251 238 204 181 193 195 186 191 195 198 192 189 186 186 190 191 190 190 183 174 173 208 194 203 130
211 210 212 209 199 205 207 206 206 212 210 212 214 220 218 223 238 266 269 272 203 198 197 193 194 193 189 195 199 196 193 194 195 196 201 200 197 196 190 187 215 222 207 171
209 210 212 206 204 201 207 204 207 211 213 214 217 216 217 226 239 257 265 273 205 211 216 213 196 189 193 194 197 197 197 200 201 203 207 208 206 204 195 195 208 224 217 222
208 212 213 205 202 203 199 203 207 212 218 219 217 220 219 227 244 258 272 251 215 206 214 204 196 188 188 193 198 196 200 203 206 208 210 212 215 214 201 200 205 214 203 184
210 211 213 205 201 203 203 198 204 212 216 221 222 219 220 223 232 245 262 245 224 220 220 200 195 188 184 191 200 199 204 209 211 211 210 217 220 216 206 210 210 220 200 159
212 209 213 204 201 203 202 200 207 204 214 219 220 220 209 219 232 240 240 291 262 208 211 208 200 185 181 190 197 202 208 214 216 216 220 222 220 213 211 211 216 198 223 180
215 211 212 205 202 202 198 200 204 209 213 212 215 205 214 223 233 246 254 259 264 221 211 211 206 188 184 195 200 205 210 215 218 220 223 221 221 215 215 215 199 206 200 184
217 213 213 208 203 198 194 195 199 203 216 216 202 209 205 220 232 243 248 271 213 193 199 200 195 182 190 201 204 208 214 217 221 223 224 220 218 219 212 204 197 239 200 175
214 217 213 209 204 196 193 193 196 201 209 222 199 203 208 217 226 237 248 245 217 207 192 190 182 180 196 203 207 210 213 218 223 226 223 220 215 217 207 198 205 217 200 55
213 208 212 211 208 198 193 193 198 205 204 212 204 196 205 217 223 227 238 247 245 209 198 189 182 177 200 207 207 209 211 215 216 218 220 221 218 210 194 203 212 210 230 252
216 215 202 209 211 205 197 197 204 206 202 208 213 207 211 213 212 222 227 244 246 198 189 189 186 179 195 207 208 209 211 214 220 223 224 220 211 200 201 209 212 218 231 244
215 214 209 206 213 210 206 204 200 203 199 200 200 201 210 219 215 217 218 222 219 219 201 187 183 183 176 187 212 211 202 212 215 220 214 205 202 201 209 211 220 229 238 247
212 215 213 216 211 209 211 213 207 203 199 197 197 197 205 210 221 227 225 232 234 202 205 190 188 184 185 184 195 195 202 212 214 208 202 205 207 213 219 223 232 239 247 254
203 209 210 213 215 208 210 211 211 204 201 199 198 195 202 208 216 225 227 227 218 226 206 203 202 201 199 198 194 193 205 211 213 216 220 222 223 232 237 242 245 251 263 262
198 203 205 207 211 211 206 209 211 207 204 202 200 203 200 205 210 217 227 232 226 224 209 213 204 224 213 210 206 206 207 215 219 220 222 228 237 241 242 242 247 255 261 258